Marshfield, MA

12:54 AM EDT on May 26, 2017 (GMT -0400)
Marshfield

Weather History for KGHG - January, 2013

Change the Weather History Date:

Tuesday, January 15, 2013

  Actual Average (KPYM) Record (KPYM)
Temperature  
Mean Temperature 40 °F -  
Max Temperature 42 °F 35 °F 58 °F (1953)
Min Temperature 37 °F 15 °F -8 °F (1957)
Degree Days  
Heating Degree Days 26    
Moisture  
Dew Point 32 °F    
Average Humidity 75    
Maximum Humidity 93    
Minimum Humidity 65    
Precipitation  
Precipitation 0.03 in - - ()
Sea Level Pressure  
Sea Level Pressure 30.27 in    
Wind  
Wind Speed 3 mph (NW)    
Max Wind Speed 7 mph    
Max Gust Speed -    
Visibility 10 miles    
Events Rain    
Averages and records for this station are not official NWS values.
T = Trace of Precipitation, MM = Missing Value Source: NWS Daily Summary

Daily Weather History Graph

Daily Weather History Graph

Search for Another Location

Airport or City:

Trip Planner

Search our weather history database for the weather conditions in past years. The results will help you decide how hot, cold, wet, or windy it might be!

Date:

Astronomy

Jan. 15, 2013 Rise Set
Actual Time 7:08 AM EST 4:36 PM EST
Civil Twilight 6:37 AM EST 5:07 PM EST
Nautical Twilight 6:03 AM EST 5:41 PM EST
Astronomical Twilight 5:29 AM EST 6:15 PM EST
Moon 9:07 AM EST (1/15) 9:28 PM EST (1/15)
Length of Visible Light 10h 29m
Length of Day
9h 28m
Waxing Crescent, 19% of the Moon is Illuminated
Jan 15
Waxing Crescent
Jan 18
First Quarter
Jan 26
Full
Feb 3
Last Quarter
Feb 10
New

Hourly Weather History & Observations

Time (EST) Temp. Windchill Dew Point Humidity Pressure Visibility Wind Dir Wind Speed Gust Speed Precip Events Conditions
12:15 AM 41.0 °F - 37.4 °F 87% 30.26 in 10.0 mi Calm Calm - N/A Rain Light Rain
12:35 AM 41.0 °F 39.0 °F 35.6 °F 81% 30.27 in 10.0 mi NW 3.5 mph - 0.01 in Rain Light Rain
12:55 AM 39.2 °F - 35.6 °F 87% 30.28 in 10.0 mi Calm Calm - 0.01 in   Light Drizzle
1:15 AM 39.2 °F - 35.6 °F 87% 30.28 in 10.0 mi Calm Calm - N/A Rain Light Rain
1:35 AM 39.2 °F - 37.4 °F 93% 30.27 in 10.0 mi Calm Calm - N/A Rain Light Rain
1:55 AM 39.2 °F - 35.6 °F 87% 30.28 in 10.0 mi Calm Calm - N/A Rain Light Rain
2:15 AM 39.2 °F - 35.6 °F 87% 30.27 in 9.0 mi Calm Calm - 0.01 in Rain Light Rain
2:35 AM 37.4 °F 34.9 °F 35.6 °F 93% 30.28 in 10.0 mi WNW 3.5 mph - 0.01 in Rain Light Rain
2:55 AM 39.2 °F - 33.8 °F 81% 30.26 in 10.0 mi Calm Calm - 0.02 in   Light Drizzle
3:15 AM 37.4 °F 32.8 °F 33.8 °F 87% 30.26 in 10.0 mi NW 5.8 mph - N/A Rain Light Rain
3:55 AM 37.4 °F 34.9 °F 33.8 °F 87% 30.24 in 10.0 mi West 3.5 mph - N/A   Mostly Cloudy
4:15 AM 37.4 °F - 35.6 °F 93% 30.24 in 10.0 mi Calm Calm - N/A   Mostly Cloudy
4:55 AM 39.2 °F 37.0 °F 33.8 °F 81% 30.23 in 10.0 mi North 3.5 mph - N/A   Mostly Cloudy
5:35 AM 39.2 °F 35.9 °F 32.0 °F 75% 30.23 in 10.0 mi NNW 4.6 mph - N/A   Scattered Clouds
5:55 AM 39.2 °F 35.0 °F 32.0 °F 75% 30.24 in 10.0 mi NNW 5.8 mph - N/A   Mostly Cloudy
6:15 AM 39.2 °F 35.9 °F 32.0 °F 75% 30.25 in 10.0 mi NNW 4.6 mph - N/A   Mostly Cloudy
6:35 AM 39.2 °F 35.0 °F 32.0 °F 75% 30.25 in 10.0 mi NNW 5.8 mph - N/A   Partly Cloudy
6:55 AM 39.2 °F 35.9 °F 32.0 °F 75% 30.26 in 10.0 mi NW 4.6 mph - N/A   Clear
7:15 AM 37.4 °F 33.8 °F 32.0 °F 81% 30.29 in 10.0 mi WNW 4.6 mph - N/A   Clear
7:35 AM 37.4 °F 33.8 °F 32.0 °F 81% 30.29 in 10.0 mi WNW 4.6 mph - N/A   Mostly Cloudy
7:55 AM 39.2 °F 35.0 °F 30.2 °F 70% 30.30 in 10.0 mi NW 5.8 mph - N/A   Overcast
8:15 AM 39.2 °F 37.0 °F 30.2 °F 70% 30.30 in 10.0 mi NW 3.5 mph - N/A   Mostly Cloudy
8:35 AM 39.2 °F 35.9 °F 30.2 °F 70% 30.31 in 10.0 mi NW 4.6 mph - N/A   Mostly Cloudy
8:55 AM 39.2 °F 35.9 °F 30.2 °F 70% 30.31 in 10.0 mi NW 4.6 mph - N/A   Mostly Cloudy
9:15 AM 39.2 °F 34.2 °F 32.0 °F 75% 30.31 in 10.0 mi NW 6.9 mph - N/A   Mostly Cloudy
9:55 AM 41.0 °F 36.4 °F 32.0 °F 70% 30.31 in 10.0 mi NNW 6.9 mph - N/A   Overcast
10:15 AM 41.0 °F 36.4 °F 32.0 °F 70% 30.31 in 10.0 mi NW 6.9 mph - N/A   Mostly Cloudy
10:35 AM 41.0 °F 37.1 °F 32.0 °F 70% 30.32 in 10.0 mi NW 5.8 mph - N/A   Overcast
10:55 AM 41.0 °F 39.0 °F 32.0 °F 70% 30.30 in 10.0 mi NW 3.5 mph - N/A   Overcast
11:15 AM 41.0 °F 36.4 °F 32.0 °F 70% 30.30 in 10.0 mi NW 6.9 mph - N/A   Mostly Cloudy
11:35 AM 41.0 °F 36.4 °F 32.0 °F 70% 30.28 in 10.0 mi NW 6.9 mph - N/A   Partly Cloudy
11:55 AM 41.0 °F 37.1 °F 30.2 °F 65% 30.28 in 10.0 mi NW 5.8 mph - N/A   Clear
12:15 PM 41.0 °F 37.1 °F 30.2 °F 65% 30.28 in 10.0 mi NNW 5.8 mph - N/A   Partly Cloudy
12:35 PM 41.0 °F 37.1 °F 30.2 °F 65% 30.28 in 10.0 mi NW 5.8 mph - N/A   Partly Cloudy
12:55 PM 41.0 °F 38.0 °F 32.0 °F 70% 30.27 in 10.0 mi NW 4.6 mph - N/A   Mostly Cloudy
1:15 PM 42.8 °F 41.1 °F 32.0 °F 66% 30.27 in 10.0 mi NW 3.5 mph - N/A   Overcast
1:35 PM 42.8 °F 40.1 °F 32.0 °F 66% 30.27 in 10.0 mi NW 4.6 mph - N/A   Overcast
1:55 PM 42.8 °F 40.1 °F 32.0 °F 66% 30.28 in 10.0 mi NW 4.6 mph - N/A   Overcast
2:15 PM 42.8 °F 40.1 °F 32.0 °F 66% 30.27 in 10.0 mi NW 4.6 mph - N/A   Overcast
2:35 PM 42.8 °F 40.1 °F 32.0 °F 66% 30.28 in 10.0 mi NNW 4.6 mph - N/A   Partly Cloudy
2:55 PM 42.8 °F 39.3 °F 32.0 °F 66% 30.26 in 10.0 mi NNW 5.8 mph - N/A   Clear
3:35 PM 41.0 °F - 32.0 °F 70% 30.27 in 10.0 mi Calm Calm - N/A   Clear
3:55 PM 41.0 °F 39.0 °F 30.2 °F 65% 30.27 in 10.0 mi NNW 3.5 mph - N/A   Clear
4:15 PM 41.0 °F - 30.2 °F 65% 30.25 in 10.0 mi Calm Calm - N/A   Clear
4:35 PM 39.2 °F - 32.0 °F 75% 30.25 in 10.0 mi Calm Calm - N/A   Clear
4:55 PM 39.2 °F - 32.0 °F 75% 30.27 in 10.0 mi Calm Calm - N/A   Partly Cloudy
5:15 PM 39.2 °F - 32.0 °F 75% 30.28 in 10.0 mi Calm Calm - N/A   Mostly Cloudy
5:35 PM 37.4 °F - 32.0 °F 81% 30.28 in 10.0 mi Calm Calm - N/A   Overcast
5:55 PM 37.4 °F - 32.0 °F 81% 30.28 in 10.0 mi Calm Calm - N/A   Overcast
6:15 PM 37.4 °F - 32.0 °F 81% 30.28 in 10.0 mi Calm Calm - N/A   Overcast
6:35 PM 37.4 °F - 32.0 °F 81% 30.27 in 10.0 mi Calm Calm - N/A   Overcast
6:55 PM 37.4 °F - 32.0 °F 81% 30.28 in 10.0 mi Calm Calm - N/A   Overcast
7:15 PM 37.4 °F - 32.0 °F 81% 30.28 in 10.0 mi Calm Calm - N/A   Overcast
7:35 PM 37.4 °F - 32.0 °F 81% 30.29 in 10.0 mi Calm Calm - N/A   Overcast
7:55 PM 39.2 °F - 32.0 °F 75% 30.28 in 10.0 mi Calm Calm - N/A   Overcast
8:15 PM 37.4 °F - 32.0 °F 81% 30.27 in 10.0 mi Calm Calm - N/A   Overcast
8:35 PM 37.4 °F 34.9 °F 32.0 °F 81% 30.27 in 10.0 mi NW 3.5 mph - N/A   Mostly Cloudy
8:55 PM 39.2 °F 37.0 °F 30.2 °F 70% 30.27 in 10.0 mi NW 3.5 mph - N/A   Partly Cloudy
9:15 PM 39.2 °F 37.0 °F 30.2 °F 70% 30.26 in 10.0 mi NW 3.5 mph - N/A   Partly Cloudy
9:35 PM 39.2 °F 35.9 °F 30.2 °F 70% 30.25 in 10.0 mi North 4.6 mph - N/A   Partly Cloudy
9:55 PM 39.2 °F 35.0 °F 30.2 °F 70% 30.27 in 10.0 mi NNW 5.8 mph - N/A   Partly Cloudy
10:15 PM 39.2 °F 37.0 °F 30.2 °F 70% 30.26 in 10.0 mi NNW 3.5 mph - N/A   Partly Cloudy
10:35 PM 39.2 °F 35.9 °F 30.2 °F 70% 30.26 in 10.0 mi NNW 4.6 mph - N/A   Clear
10:55 PM 39.2 °F 35.9 °F 30.2 °F 70% 30.26 in 10.0 mi North 4.6 mph - N/A   Scattered Clouds
11:15 PM 39.2 °F 35.9 °F 30.2 °F 70% 30.25 in 10.0 mi North 4.6 mph - N/A   Mostly Cloudy
11:55 PM 39.2 °F 35.0 °F 30.2 °F 70% 30.24 in 10.0 mi North 5.8 mph - N/A   Overcast